Regional Weather Roundup
Issued by NWS Midland/Odessa, TX

Home | Current Version | Previous Version | Text Only | Print | Product List | Glossary On
Versions: 1 2 3 4 5 6 7 8 9 10 11 12 13 14 15 16 17 18 19 20 21 22 23 24 25 26 27 28 29 30 31 32 33 34 35 36 37 38 39 40 41 42 43 44 45 46 47 48 49 50
000
ASUS44 KMAF 281310
RWRMAF
MIDLAND AREA WEATHER ROUNDUP
NATIONAL WEATHER SERVICE MIDLAND TX
700 AM CST FRI NOV 28 2014

...IN SOUTHWEST TEXAS AND SOUTHEAST NEW MEXICO...

CITY           SKY/WX    TMP DP  RH WIND       PRES   REMARKS
ALPINE         PTCLDY    51  23  33 SW17      30.30S
ANDREWS        FAIR      39  33  78 SW10      30.18S WCI  32
ARTESIA        NOT AVBL
BIG SPRING     PTCLDY    42  33  73 S7        30.22S WCI  37
CARLSBAD       PTCLDY    30  25  81 CALM      30.17R
DRYDEN           N/A     40  35  83 N6        30.25R WCI  36
FORT STOCKTON  CLEAR     42  28  57 S12       30.19S WCI  36
GUAD PASS      NOT AVBL
HOBBS          CLEAR     32  30  93 S6        30.18F WCI  26
MARFA          PTCLDY    23  19  86 NE5       30.30S WCI  17
MIDLAND AIRPK  CLEAR     45  36  70 S8        30.20S
MIDLAND INTL   CLEAR     41  34  76 S8        30.19S WCI  36
ODESSA         CLEAR     41  33  73 S7        30.19F WCI  36
PECOS          PTCLDY    30  25  81 CALM      30.20R
PRESIDIO       FAIR      40  28  60 CALM      30.27S
SEMINOLE       PTCLDY    33  30  88 CALM      30.18S
SNYDER         CLEAR     36  32  87 SW5       30.18F WCI  32
WINK           CLEAR     30  24  78 VRB3      30.18S
$$
...OTHER STATIONS IN TEXAS...

CITY           SKY/WX    TMP DP  RH WIND       PRES   REMARKS
ABILENE        CLEAR     48  37  65 S14       30.19F
AMARILLO       PTCLDY    38  27  64 SW10      30.06F WCI  31
AUSTIN         MOCLDY    41  39  93 SW3       30.31F
BROWNSVILLE    CLEAR     49  48  97 CALM      30.31S
CORPUS CHRISTI FOG       51  50  96 CALM      30.31S VSB 1/2
DALLAS FTW     PTCLDY    41  31  67 S8        30.24F WCI  36
DEL RIO        CLOUDY    50  49  96 SE9       30.27F FOG
EL PASO        MOCLDY    38  22  52 N8        30.25S WCI  32
HOUSTON INT    CLEAR     42  40  92 E6        30.36R WCI  38
LUBBOCK        PTCLDY    38  29  70 SW12      30.13F WCI  30
SAN ANGELO     CLEAR     47  43  86 S13       30.22S
SAN ANTONIO    MOCLDY    43  38  82 NW5       30.32R
WACO           CLEAR     41  34  76 SW9       30.30S WCI  35
WICHITA FALLS  NOT AVBL
$$
...OTHER LOCATIONS IN NEW MEXICO...

CITY           SKY/WX    TMP DP  RH WIND       PRES   REMARKS
ALAMAGORDO     PTCLDY    32  18  55 CALM      30.26S
ALBUQUERQUE    MOCLDY    32  19  58 E3        30.28S
CANNON AFB     PTCLDY    39  26  58 W10       30.12F WCI  33
CLOVIS         CLEAR     39  25  56 W16       30.11F WCI  30
HOLLOMAN AFB   PTCLDY    28  17  63 E5        30.25S WCI  23
ROSWELL        MOCLDY    31  25  78 W3        30.17F
RUIDOSO        CLEAR     39  10  30 W7        30.30S WCI  34
SANTA FE       PTCLDY    29  18  63 N9        30.28S WCI  20
TRUTH OR CONSE PTCLDY    37  19  48 NW6       30.25S WCI  32
TUCUMCARI      PTCLDY    43  22  43 NW3       30.09R
$$


USA.gov is the U.S. government's official web portal to all federal, state and local government web resources and services.